Home > Weather > Tokyo > Past weeks

Flag for Japan Weather for the Past 2 Weeks in Tokyo, Japan

Now
40 °F

Chilly.


Feels Like: 33 °F
Forecast: 33 / 49 °F
Wind: 9 mph from Northwest

Location: Tokyo

Current Time: Feb 11, 2016 at 3:29:35 AM

Latest Report: Feb 11, 2016 at 2:00 AM


Visibility: N/A

Pressure: 30.29 "Hg

Humidity: 34%

Dew point: 14 °F

Location of TokyoLocation

Historic Weather in Tokyo — Graph

°F

Tokyo Temperature Yesterday

Maximum temperature yesterday: 50 °F (at 1:00 PM)
Minimum temperature yesterday: 35 °F (at 5:00 AM)
Average temperature yesterday: 43 °F

High & Low Weather Summary for the Past Weeks

 TemperatureHumidityPressure
High56 °F (Feb 9, 1:00 PM)95% (Jan 30, 3:00 AM)30.34 "Hg (Jan 30, 3:00 AM)
Low31 °F (Jan 27, 5:00 AM)20% (Feb 10, 2:00 PM)29.66 "Hg (Feb 9, 1:00 PM)
Average42 °F58%30.09 "Hg
* Reported Jan 27 2:00 AM — Feb 11 2:00 AM, Tokyo, Weather by CustomWeather, © 2016

Note: Actual official high and low records may vary slightly from our data, if they occured in-between our weather recording intervals... More about our weather records

Advertising

Tokyo Weather History for the Previous 24 Hours

 ConditionsComfort  
Time TempWeatherWind HumidityBarometerVisibility
2:00 AM
Thu, Feb 11
40 °FChilly.9 mph34%30.29 "HgN/A
1:00 AM41 °FQuite cool.14 mph32%30.28 "HgN/A
12:00 AM41 °FQuite cool.9 mph30%30.26 "HgN/A
11:00 PM
Wed, Feb 10
41 °FQuite cool.10 mph29%30.25 "HgN/A
10:00 PM42 °FQuite cool.10 mph29%30.25 "HgN/A
9:00 PM42 °FClear.9 mph29%30.24 "Hg12 mi
8:00 PM42 °FQuite cool.10 mph31%30.21 "HgN/A
7:00 PM42 °FQuite cool.9 mph36%30.19 "HgN/A
6:00 PM43 °FClear.8 mph33%30.17 "Hg25 mi
5:00 PM45 °FCool.10 mph25%30.14 "HgN/A
4:00 PM47 °FCool.13 mph21%30.10 "HgN/A
3:00 PM49 °FPassing clouds.14 mph22%30.09 "Hg16 mi
2:00 PM49 °FCool.15 mph20%30.09 "HgN/A
1:00 PM50 °FCool.15 mph22%30.08 "HgN/A
12:00 PM49 °FPassing clouds.15 mph22%30.09 "Hg25 mi
6:00 AM37 °FClear.8 mph48%30.02 "Hg12 mi
5:00 AM35 °FChilly.6 mph58%30.00 "HgN/A
4:00 AM38 °FChilly.8 mph45%29.97 "HgN/A
3:00 AM40 °FPassing clouds.8 mph42%29.95 "Hg12 mi
Weather by CustomWeather, © 2016

See weather overviewHow to use our weather pages